Cape Newenham, AK

2:21 AM AKDT on March 25, 2017 (GMT -0800)
Cape Newenham LRRS

Weather History for PAEH - October, 2011

Change the Weather History Date:

Tuesday, October 11, 2011

  Actual Average Record
Temperature  
Mean Temperature 36 °F -  
Max Temperature 37 °F 39 °F 57 °F (2012)
Min Temperature 34 °F 33 °F 28 °F (1996)
Degree Days  
Heating Degree Days 30    
Moisture  
Dew Point 30 °F    
Average Humidity 79    
Maximum Humidity 89    
Minimum Humidity 67    
Precipitation  
Precipitation 0.00 in - - ()
Sea Level Pressure  
Sea Level Pressure 29.91 in    
Wind  
Wind Speed 22 mph (NNW)    
Max Wind Speed 28 mph    
Max Gust Speed 32 mph    
Visibility 10 miles    
Events      
Averages and records for this station are not official NWS values.
T = Trace of Precipitation, MM = Missing Value Source: NWS Daily Summary

Daily Weather History Graph

Daily Weather History Graph

Search for Another Location

Airport or City:

Trip Planner

Search our weather history database for the weather conditions in past years. The results will help you decide how hot, cold, wet, or windy it might be!

Date:

Astronomy

Oct. 11, 2011 Rise Set
Actual Time 9:15 AM AKDT 7:53 PM AKDT
Civil Twilight 8:35 AM AKDT 8:33 PM AKDT
Nautical Twilight 7:48 AM AKDT 9:19 PM AKDT
Astronomical Twilight 7:01 AM AKDT 10:06 PM AKDT
Moon 7:13 PM AKDT (10/11) 9:16 AM AKDT (10/11)
Length of Visible Light 11h 58m
Length of Day
10h 37m
Full, 100% of the Moon is Illuminated
Oct 11
Full
Oct 11
Full
Oct 19
Last Quarter
Oct 26
New
Nov 2
First Quarter

Hourly Weather History & Observations

Time (AKDT) Temp. Windchill Dew Point Humidity Pressure Visibility Wind Dir Wind Speed Gust Speed Precip Events Conditions
12:55 AM 37.9 °F 27.9 °F 31.1 °F 76% 29.80 in 10.0 mi NNW 19.6 mph - N/A   Overcast
1:55 AM 37.9 °F 27.3 °F 32.2 °F 80% 29.80 in 10.0 mi NNW 21.9 mph 26.5 mph N/A   Overcast
2:55 AM 37.9 °F 26.8 °F 31.1 °F 76% 29.79 in 10.0 mi NNW 24.2 mph - N/A   Overcast
3:55 AM 37.0 °F 25.9 °F 29.1 °F 73% 29.80 in 10.0 mi NNW 23.0 mph - N/A   Overcast
4:55 AM 37.0 °F 26.2 °F 30.0 °F 76% 29.80 in 10.0 mi NNW 21.9 mph - N/A   Unknown
5:55 AM 36.0 °F 25.0 °F 32.2 °F 86% 29.80 in 10.0 mi North 20.7 mph - N/A   Overcast
6:55 AM 36.0 °F 24.7 °F 33.1 °F 89% 29.81 in 10.0 mi North 21.9 mph 25.3 mph N/A   Overcast
7:55 AM 36.0 °F 25.0 °F 33.1 °F 89% 29.83 in 10.0 mi North 20.7 mph - N/A   Overcast
8:55 AM 36.0 °F 24.4 °F 32.2 °F 86% 29.85 in 10.0 mi North 23.0 mph - N/A   Overcast
9:55 AM 34.0 °F 22.4 °F 31.1 °F 89% 29.88 in 10.0 mi North 20.7 mph 27.6 mph N/A   Mostly Cloudy
10:55 AM 34.0 °F 22.1 °F 31.1 °F 89% 29.90 in 10.0 mi North 21.9 mph - N/A   Mostly Cloudy
11:55 AM 35.1 °F 23.5 °F 32.2 °F 89% 29.92 in 10.0 mi North 21.9 mph - N/A   Mostly Cloudy
2:55 PM 36.0 °F 25.0 °F 31.1 °F 82% 29.96 in 10.0 mi North 20.7 mph - N/A   Scattered Clouds
4:55 PM 36.0 °F 24.7 °F 30.0 °F 79% 29.97 in 10.0 mi North 21.9 mph - N/A   Mostly Cloudy
5:55 PM 36.0 °F 24.2 °F 27.1 °F 70% 29.98 in 10.0 mi North 24.2 mph 28.8 mph N/A   Scattered Clouds
6:55 PM 36.0 °F 24.2 °F 27.1 °F 70% 29.99 in 10.0 mi NNW 24.2 mph 32.2 mph N/A   Mostly Cloudy
7:55 PM 37.0 °F 24.9 °F 28.0 °F 70% 30.00 in 10.0 mi NNW 27.6 mph 31.1 mph N/A   Mostly Cloudy
8:55 PM 37.0 °F 25.4 °F 30.0 °F 76% 30.02 in 10.0 mi NNW 25.3 mph - N/A   Overcast
9:55 PM 37.0 °F 26.7 °F 27.1 °F 67% 30.03 in 10.0 mi NNW 19.6 mph - N/A   Overcast
10:55 PM 37.0 °F 27.0 °F 27.1 °F 67% 30.05 in 10.0 mi NNW 18.4 mph 25.3 mph N/A   Overcast
11:55 PM 36.0 °F 25.6 °F 27.1 °F 70% 30.05 in 10.0 mi NNW 18.4 mph - N/A   Mostly Cloudy